CZ-2D DEB, 44619

Orbit data source: Space-Track

CZ-2D DEB, 44619 is space debris in SSO originally from a launch on Sat, 02 Jun 2018 UTC launched from the Jiuquan Satellite Launch Center, China (JSC). Debris objects in space refer to the collection of defunct objects orbiting the Earth. Examples of debris include non-operational satellites, rocket bodies, and fragments generated from explosions, collisions, or faulty payload assembly.

Loading next visibility...
Identifier
44619, 2018-048F
Orbit
SSO
Country
Flag of CNCN / PRC
Related business
Manufacturer
CALT
Mission
Spacecraft
Bus & Motor
Unknown
Mass
1 kg wet, 1 kg dry
Launch date (UTC)
2018-06-02 (8 years ago)
Launch vehicle
Unknown
Launch site
Jiuquan Satellite Launch Center, China (JSC)
Object type
Payload
Rocket body
Debris
Shape & HBR
Cone, 0.1 m
Radar Cross Section
0.025 m², Medium (>0.1 m² and < 1m²)

Expand to show TLE details & history
Last TLE update: 17 hours ago

TLE from 17 hours ago
0 CZ-2D DEB
1 44619U 18048F   26256.03728741  .00002901  00000-0  20947-3 0  9995
2 44619  98.2828 109.8026 0010009 282.6232  77.3872 15.04964395444860
Epoch: 2026-09-13T00:53Z
TLE epoch observation values (Epoch: 2026-09-13T00:53:41.632Z)
Latitude
-0.0001°
Longitude
104.34146°
Altitude
553.15 km
Speed
7.586 km/s
True Right ascension
07h 19m 12s
True Declination
0° 00' 00"
Sunlit
Object was in daylight at epoch
Visualization orbit readout
Latitude
Unknown
Longitude
Unknown
Altitude
Unknown
Speed
Unknown
Apparent Right ascension
Unknown
Apparent Declination
Unknown
Sunlit
N/A
Visualization observer readout
Local Sidereal Time
09:54:29
Azimuth
Unknown
Elevation
Unknown
Doppler factor
Unknown
Orbital elements
Apogee altitude
555.573 km
Perigee altitude
541.707 km
Semi-major axis
6,926.777 km
Eccentricity
0.001
Inclination
98.2828°
RAAN
109.8026°
Arg. of periapsis
282.6232°
True anomaly
77.49916°
Mean anomaly
77.3872°
Eccentric anomaly
77.44318°
Mean motion
3.76484 °/min
Orbital period
95.62 mins
BSTAR
0.00020947
Loading maneuver chart data...
Computing Atmospheric mass density...
Loading historical data...
Loading historical data...
Loading historical data...
Loading historical data...
Loading historical data...
Loading historical data...
Loading historical data...
Other satellites on launch #48 in the year 2018 (2018-06-02 UTC)

Documentation

Showing up to 5 results
|